カタログに戻る

SL-8 R/B

運用中PO
NORAD 28381·ROCKET BODY·🇷🇺 Russia

打ち上げ Jul 22, 2004 から Plesetsk Cosmodrome

Loading…

次のパス (今後24時間)

TLE

最新Source: Space-Track

元期: Sep 14, 2026, 16:08 UTC

1 28381U 04028B   26257.67222881  .00000074  00000-0  58242-4 0  9990
2 28381  82.9619 344.7553 0030361 270.7293 260.7737 13.78651466114097

AllMySatでSL-8 R/Bをリアルタイム追跡

Download on the App Store